[[{"header":{"parameterUnit":"m.s-1","parameterCategory":1,"la1":30.2991,"la2":30.254,"lo1":-89.0895,"lo2":-89.0444,"dy":0.0017,"dx":0.0017,"nx":28,"ny":28,"refTime":"2024-06-12T03:00:00:Z","depth":0,"parameterNumber":2,"parameterNumberName":"U-component_of_WINDS"},"data":[0,0,0,0,0,0,0,0,0,0,0,0,0,0,0,0,0,0,0,0,0,0,0,0,0,0,0,0,0,0,0,0,0,0,0,0,0,0,0,0,0,0,0,0,0,0,0,0,0,0,0,0,0,0,0,0,0,0,0.0678,0.0679,0,0.0725,0.0726,0.0726,0.0765,0.0765,0.0765,0.0766,0.0814,0.0815,0.0816,0,0,0,0,0,0,0,0,0,0,0,0,0,0.0621,0.0621,0.0678,0.0679,0.0679,0.0725,0.0726,0.0727,0.0764,0.0765,0.0765,0.0766,0.0814,0.0815,0.0816,0,0,0,0,0,0,0,0,0,0,0,0,0,0.0654,0.0622,0.0678,0.0704,0.0706,0.0725,0.0726,0.0727,0.0764,0.0765,0.0766,0.0766,0.0813,0.0815,0.0816,0.0813,0,0,0.082,0.0821,0,0,0,0,0,0,0,0,0.0652,0.0656,0.0699,0.0702,0.0705,0.074,0.0723,0.0756,0.0764,0.0742,0.0766,0.0766,0.0789,0.0792,0.08,0.0815,0.0817,0.082,0.0821,0.0822,0.0822,0,0,0,0,0,0,0,0.065,0.0655,0.0697,0.07,0.0703,0.0713,0.0718,0.073,0.0762,0.0744,0.0747,0.0752,0.0791,0.0798,0.0801,0.0818,0.082,0.0822,0.0823,0.0823,0.0833,0.0833,0,0,0,0,0,0,0.0644,0.0652,0.0695,0.0698,0.068,0.0713,0.072,0.0728,0.0762,0.0767,0.0752,0.0754,0.0796,0.08,0.0803,0.0801,0.0822,0.0823,0.0824,0.0834,0.0833,0.0832,0,0,0,0,0,0,0.0642,0.0647,0.0693,0.0676,0.0683,0.0714,0.0723,0.0729,0.0737,0.0767,0.0773,0.0754,0.0796,0.0801,0.081,0.0803,0.0824,0.0825,0.0834,0.0834,0.0833,0.0798,0,0,0,0,0,0,0.064,0.0646,0.0645,0.0676,0.0683,0.0699,0.0723,0.0729,0.0739,0.0742,0.0771,0.0776,0.0797,0.0808,0.0812,0.0806,0.0826,0.0835,0.0834,0.0833,0.0799,0.0796,0.0792,0,0,0,0,0,0.0638,0.0634,0.0645,0.065,0.0683,0.0699,0.0703,0.0727,0.0738,0.0737,0.0757,0.0775,0.0804,0.0809,0.0813,0.0807,0.0836,0.0834,0.0833,0.0801,0.0796,0.0792,0,0,0,0,0,0,0.0601,0.0638,0.0651,0.0656,0.0674,0.0705,0.0705,0.0722,0.0737,0.0739,0.0769,0.0775,0.0781,0.0795,0.08,0.0806,0.0822,0.0822,0.0796,0.0792,0.0789,0.0784,0.0827,0,0,0,0,0,0.0594,0.0604,0.0636,0.0637,0.0645,0.0673,0.0681,0.0699,0.0718,0.0726,0.0747,0.0765,0.0778,0.0786,0.08,0.0802,0.0809,0.0801,0.0797,0.0794,0.0793,0.0795,0.0791,0.0828,0.0828,0.0828,0,0,0.0578,0.06,0.0604,0.063,0.0646,0.0655,0.068,0.0689,0.0696,0.0728,0.0737,0.0753,0.0775,0.0781,0.0784,0.0793,0.0784,0.0792,0.079,0.079,0.0793,0.0789,0.0786,0.0827,0.0828,0.0828,0,0,0.0555,0.0572,0.0575,0.059,0.0614,0.0633,0.0634,0.0663,0.0674,0.0685,0.0708,0.0718,0.074,0.0755,0.0765,0.0748,0.0765,0.0752,0.0733,0.0734,0.0731,0.0729,0.0721,0.0719,0.0751,0.0751,0.0751,0,0.0532,0.0547,0.0574,0.0582,0.0592,0.0622,0.0625,0.0639,0.0666,0.0672,0.0682,0.071,0.0728,0.0737,0.0732,0.074,0.0742,0.0748,0.0729,0.0727,0.0725,0.0719,0.0716,0.0749,0.0749,0.0749,0.075,0,0.0518,0.0528,0.0528,0.0553,0.0564,0.0569,0.0597,0.0604,0.0621,0.0639,0.0649,0.0671,0.069,0.0693,0.071,0.0705,0.0709,0.0724,0.074,0.0719,0.0714,0.0712,0.0746,0.0747,0.0748,0.0748,0,0,0.0471,0.0512,0.0511,0.0523,0.0552,0.056,0.0567,0.0585,0.0591,0.0609,0.0615,0.0633,0.0647,0.0659,0.0677,0.0679,0.0663,0.0693,0.0694,0.0686,0.0658,0.0645,0.0642,0.0675,0.0674,0.0674,0.0655,0,0.0451,0.0464,0.0489,0.0494,0.0504,0.0533,0.0539,0.0557,0.0574,0.0585,0.0604,0.0616,0.0634,0.0641,0.0644,0.0664,0.0657,0.0666,0.068,0.068,0.0672,0.064,0.0627,0.0608,0.0654,0.0653,0.0653,0,0.0429,0.0445,0.0451,0.048,0.0485,0.0489,0.0508,0.0518,0.054,0.0552,0.0566,0.0586,0.0595,0.0611,0.0623,0.0628,0.0636,0.0646,0.0646,0.0647,0.0664,0.0638,0.0603,0.0599,0.065,0.065,0.065,0,0.0392,0.0416,0.0423,0.0432,0.0466,0.0468,0.0482,0.0505,0.0514,0.0531,0.0537,0.0555,0.0564,0.0577,0.0601,0.0611,0.061,0.0629,0.062,0.062,0.0618,0.0617,0.0581,0.0625,0.0625,0.0625,0.0625,0,0.0366,0.0369,0.0407,0.0411,0.0414,0.0443,0.0446,0.0463,0.0482,0.049,0.0517,0.0523,0.0556,0.0566,0.0586,0.0592,0.0597,0.0607,0.0612,0.0603,0.0602,0.0608,0.0609,0.0624,0.0624,0.0624,0.0625,0,0.0325,0.0351,0.036,0.0391,0.0399,0.0401,0.0427,0.0432,0.0452,0.0461,0.0465,0.0495,0.0509,0.0535,0.0556,0.0569,0.0571,0.0581,0.0563,0.0566,0.0556,0.0556,0.0521,0.0518,0.0565,0.0564,0.0564,0,0.0306,0.0309,0.0341,0.0348,0.0361,0.0372,0.0382,0.0411,0.042,0.0445,0.0446,0.0462,0.0476,0.0497,0.0521,0.0537,0.0546,0.0533,0.0549,0.0541,0.0545,0.0544,0.0544,0.0529,0.0528,0.0528,0.0527,0,0.0269,0.0282,0.0295,0.0313,0.0324,0.0339,0.0356,0.036,0.0393,0.0402,0.0417,0.0427,0.0449,0.0464,0.0484,0.0499,0.0518,0.0522,0.0521,0.0512,0.0502,0.0506,0.0552,0.0523,0.0523,0.0523,0.0524,0.0524,0.0238,0.0241,0.0264,0.0278,0.0294,0.0309,0.0315,0.0335,0.0348,0.0367,0.0384,0.0397,0.0419,0.0448,0.0461,0.0472,0.0481,0.0479,0.0479,0.0477,0.0474,0.0501,0.0476,0.0476,0.0476,0.0476,0.0476,0,0.0201,0.0218,0.023,0.0253,0.0263,0.0282,0.0301,0.0309,0.032,0.0339,0.0352,0.0369,0.0384,0.0409,0.0426,0.043,0.0439,0.0433,0.0432,0.0435,0.0465,0.0464,0.0425,0.0425,0.0425,0.0425,0.0425,0.0425,0.0183,0.019,0.0205,0.022,0.0237,0.0249,0.0259,0.0273,0.0288,0.0305,0.0318,0.0334,0.0356,0.0375,0.039,0.0397,0.0401,0.0392,0.0402,0.0429,0.0433,0.0438,0.0437,0.0393,0.0393,0.0371,0.0371,0.0371]},{"header":{"parameterUnit":"m.s-1","parameterCategory":1,"la1":30.2991,"la2":30.254,"lo1":-89.0895,"lo2":-89.0444,"dy":0.0017,"dx":0.0017,"nx":28,"ny":28,"refTime":"2024-06-12T03:00:00:Z","depth":0,"parameterNumber":3,"parameterNumberName":"V-component_of_WINDS"},"data":[0,0,0,0,0,0,0,0,0,0,0,0,0,0,0,0,0,0,0,0,0,0,0,0,0,0,0,0,0,0,0,0,0,0,0,0,0,0,0,0,0,0,0,0,0,0,0,0,0,0,0,0,0,0,0,0,0,0,-0.5666,-0.5666,0,-0.572,-0.572,-0.5721,-0.5739,-0.5739,-0.5738,-0.5738,-0.5795,-0.5797,-0.5799,0,0,0,0,0,0,0,0,0,0,0,0,0,-0.558,-0.5582,-0.5666,-0.5666,-0.5667,-0.572,-0.572,-0.5721,-0.5739,-0.5738,-0.5738,-0.5738,-0.5795,-0.5797,-0.5799,0,0,0,0,0,0,0,0,0,0,0,0,0,-0.5624,-0.5582,-0.5666,-0.5682,-0.5684,-0.572,-0.572,-0.5721,-0.5739,-0.5738,-0.5738,-0.5738,-0.5794,-0.5796,-0.5799,-0.5822,0,0,-0.5807,-0.5808,0,0,0,0,0,0,0,0,-0.5622,-0.5627,-0.5679,-0.5681,-0.5683,-0.5722,-0.5711,-0.5755,-0.5739,-0.5718,-0.5738,-0.5738,-0.5771,-0.5776,-0.5787,-0.5825,-0.5828,-0.5807,-0.5809,-0.581,-0.5811,0,0,0,0,0,0,0,-0.5619,-0.5625,-0.5687,-0.568,-0.5683,-0.5688,-0.5694,-0.572,-0.5746,-0.572,-0.5721,-0.5727,-0.5772,-0.5784,-0.5788,-0.5828,-0.5807,-0.581,-0.5811,-0.5812,-0.5891,-0.5891,0,0,0,0,0,0,-0.5613,-0.5623,-0.5686,-0.5689,-0.5651,-0.569,-0.5696,-0.571,-0.5746,-0.5751,-0.5728,-0.5728,-0.578,-0.5785,-0.579,-0.5822,-0.581,-0.5812,-0.5814,-0.589,-0.5891,-0.5892,0,0,0,0,0,0,-0.5611,-0.5618,-0.5683,-0.5656,-0.5665,-0.5691,-0.5707,-0.5711,-0.5723,-0.5752,-0.5757,-0.5735,-0.578,-0.5787,-0.5815,-0.5824,-0.5814,-0.5816,-0.589,-0.5891,-0.5891,-0.5883,0,0,0,0,0,0,-0.5608,-0.5617,-0.5626,-0.5656,-0.5666,-0.5706,-0.5708,-0.5713,-0.5727,-0.5728,-0.576,-0.5764,-0.578,-0.5811,-0.5817,-0.5827,-0.5818,-0.5889,-0.589,-0.5891,-0.5883,-0.5884,-0.5884,0,0,0,0,0,-0.5605,-0.5621,-0.5626,-0.5633,-0.5677,-0.5706,-0.5712,-0.5729,-0.5728,-0.5737,-0.5756,-0.5763,-0.5821,-0.5813,-0.5821,-0.5832,-0.5889,-0.589,-0.5891,-0.5882,-0.5883,-0.5884,0,0,0,0,0,0,-0.5591,-0.5625,-0.5631,-0.5657,-0.5679,-0.5709,-0.5721,-0.5729,-0.5752,-0.5752,-0.5773,-0.578,-0.5807,-0.5822,-0.5812,-0.5857,-0.5856,-0.5858,-0.5846,-0.5848,-0.5848,-0.5845,-0.582,0,0,0,0,0,-0.5591,-0.5611,-0.564,-0.5661,-0.5671,-0.5694,-0.5708,-0.5719,-0.5742,-0.5752,-0.5772,-0.5795,-0.5819,-0.5834,-0.5857,-0.5885,-0.5893,-0.5896,-0.5897,-0.5897,-0.59,-0.5918,-0.592,-0.5895,-0.5895,-0.5895,0,0,-0.5591,-0.5613,-0.5624,-0.5659,-0.5677,-0.5698,-0.5702,-0.5724,-0.5741,-0.5755,-0.5783,-0.5799,-0.5826,-0.5855,-0.5868,-0.5868,-0.5908,-0.5899,-0.5899,-0.5901,-0.5919,-0.5922,-0.5924,-0.5896,-0.5896,-0.5896,0,0,-0.5603,-0.562,-0.564,-0.5658,-0.5685,-0.5701,-0.5706,-0.5735,-0.5746,-0.5775,-0.5787,-0.5807,-0.5847,-0.5866,-0.5881,-0.5901,-0.591,-0.5908,-0.5913,-0.593,-0.5932,-0.5934,-0.5943,-0.5946,-0.5911,-0.5911,-0.5911,0,-0.56,-0.5632,-0.5649,-0.5671,-0.5687,-0.5701,-0.5722,-0.5739,-0.5772,-0.5783,-0.5782,-0.5834,-0.5853,-0.5887,-0.5892,-0.5903,-0.5911,-0.5905,-0.593,-0.5932,-0.5934,-0.5943,-0.5946,-0.591,-0.591,-0.591,-0.591,0,-0.5628,-0.565,-0.5663,-0.5695,-0.5712,-0.5733,-0.5755,-0.577,-0.578,-0.5796,-0.5826,-0.585,-0.5879,-0.5887,-0.5897,-0.5924,-0.5923,-0.5926,-0.5925,-0.5936,-0.5945,-0.5948,-0.591,-0.591,-0.591,-0.591,0,0,-0.5632,-0.5674,-0.5679,-0.5694,-0.5726,-0.5744,-0.5767,-0.5795,-0.5808,-0.5831,-0.5852,-0.5885,-0.5889,-0.5906,-0.5918,-0.5933,-0.595,-0.5935,-0.5936,-0.5938,-0.5983,-0.5981,-0.5985,-0.5956,-0.5956,-0.5957,-0.5981,0,-0.5649,-0.569,-0.5706,-0.574,-0.5761,-0.5776,-0.5796,-0.5818,-0.5834,-0.5855,-0.5873,-0.5897,-0.5899,-0.591,-0.5925,-0.5945,-0.596,-0.5943,-0.5977,-0.5978,-0.5971,-0.5989,-0.5988,-0.6009,-0.5984,-0.5985,-0.5985,0,-0.5674,-0.5697,-0.5732,-0.5763,-0.5773,-0.579,-0.5818,-0.5838,-0.5864,-0.5875,-0.5895,-0.5907,-0.5933,-0.5929,-0.5966,-0.5954,-0.5969,-0.5981,-0.5983,-0.5987,-0.5983,-0.5996,-0.6016,-0.602,-0.5991,-0.599,-0.599,0,-0.5675,-0.5715,-0.5742,-0.5755,-0.579,-0.5803,-0.5819,-0.5844,-0.5861,-0.5885,-0.5897,-0.5924,-0.5939,-0.5961,-0.5981,-0.5976,-0.6017,-0.6014,-0.6028,-0.6027,-0.6036,-0.6036,-0.6061,-0.6043,-0.6043,-0.6043,-0.6043,0,-0.5693,-0.5714,-0.5743,-0.576,-0.5785,-0.5805,-0.5829,-0.5846,-0.5869,-0.589,-0.5904,-0.5924,-0.5948,-0.5972,-0.5987,-0.6017,-0.6023,-0.6034,-0.6038,-0.6033,-0.6032,-0.6044,-0.6044,-0.6044,-0.6044,-0.6044,-0.6044,0,-0.5698,-0.5719,-0.5749,-0.5781,-0.579,-0.5807,-0.5835,-0.5852,-0.5869,-0.5896,-0.5903,-0.593,-0.5958,-0.598,-0.6016,-0.6027,-0.6059,-0.6062,-0.605,-0.6052,-0.6065,-0.6065,-0.61,-0.6107,-0.6083,-0.6083,-0.6084,0,-0.5709,-0.5726,-0.576,-0.5775,-0.579,-0.5814,-0.5831,-0.5852,-0.5869,-0.5901,-0.5915,-0.5944,-0.5969,-0.6014,-0.6037,-0.6066,-0.6072,-0.6082,-0.6076,-0.6072,-0.6074,-0.6073,-0.6076,-0.6083,-0.6083,-0.6084,-0.6084,0,-0.5726,-0.5735,-0.5759,-0.5787,-0.5807,-0.583,-0.5853,-0.5864,-0.589,-0.5909,-0.5938,-0.5957,-0.5995,-0.6024,-0.6056,-0.6073,-0.6084,-0.6085,-0.609,-0.6086,-0.6079,-0.6085,-0.6054,-0.6085,-0.6084,-0.6084,-0.6084,-0.6084,-0.5735,-0.5752,-0.5778,-0.5805,-0.5825,-0.5847,-0.5865,-0.5885,-0.5909,-0.5941,-0.5952,-0.5983,-0.6011,-0.6054,-0.6072,-0.6097,-0.6097,-0.6104,-0.6106,-0.6108,-0.6108,-0.6074,-0.6102,-0.6102,-0.6102,-0.6102,-0.6102,0,-0.5754,-0.5772,-0.5796,-0.5829,-0.585,-0.5857,-0.5884,-0.5902,-0.5928,-0.5953,-0.5977,-0.6012,-0.6041,-0.6067,-0.6098,-0.6113,-0.6119,-0.6121,-0.6121,-0.6125,-0.6105,-0.6099,-0.6116,-0.6116,-0.6116,-0.6116,-0.6116,-0.6116,-0.5766,-0.5795,-0.5808,-0.5848,-0.5866,-0.5896,-0.5911,-0.5932,-0.5952,-0.599,-0.6014,-0.6031,-0.6057,-0.609,-0.6118,-0.6125,-0.6137,-0.6138,-0.6146,-0.6128,-0.6126,-0.6125,-0.6119,-0.614,-0.614,-0.6164,-0.6165,-0.6165]}]]